Gonzales, LA

1:21 AM CDT on May 25, 2017 (GMT -0500)
Gonzales

Weather History for KL38 - April, 2014

Change the Weather History Date:

Saturday, April 12, 2014

  Actual Average (KBTR) Record (KBTR)
Temperature  
Mean Temperature 69 °F -  
Max Temperature 81 °F 77 °F 96 °F (1908)
Min Temperature 57 °F 56 °F 37 °F (1989)
Cooling Degree Days 4    
Growing Degree Days 19 (Base 50)    
Moisture  
Dew Point 63 °F    
Average Humidity 83    
Maximum Humidity 100    
Minimum Humidity 54    
Precipitation  
Precipitation 0.00 in - - ()
Sea Level Pressure  
Sea Level Pressure 30.08 in    
Wind  
Wind Speed 3 mph (SE)    
Max Wind Speed 12 mph    
Max Gust Speed 20 mph    
Visibility 6 miles    
Events Fog    
Averages and records for this station are not official NWS values.
T = Trace of Precipitation, MM = Missing Value Source: NWS Daily Summary

Daily Weather History Graph

Daily Weather History Graph

Search for Another Location

Airport or City:

Trip Planner

Search our weather history database for the weather conditions in past years. The results will help you decide how hot, cold, wet, or windy it might be!

Date:

Astronomy

Apr. 12, 2014 Rise Set
Actual Time 6:40 AM CDT 7:29 PM CDT
Civil Twilight 6:15 AM CDT 7:53 PM CDT
Nautical Twilight 5:46 AM CDT 8:22 PM CDT
Astronomical Twilight 5:17 AM CDT 8:52 PM CDT
Moon 5:17 PM CDT (4/12) 4:55 AM CDT (4/12)
Length of Visible Light 13h 38m
Length of Day
12h 49m
Waxing Gibbous, 93% of the Moon is Illuminated
Apr 12
Waxing Gibbous
Apr 15
Full
Apr 22
Last Quarter
Apr 29
New
May 6
First Quarter

Hourly Weather History & Observations

Time (CDT) Temp. Heat Index Dew Point Humidity Pressure Visibility Wind Dir Wind Speed Gust Speed Precip Events Conditions
12:15 AM 61.3 °F - 59.7 °F 94% 30.11 in 10.0 mi Calm Calm - N/A   Clear
12:35 AM 60.1 °F - 59.9 °F 99% 30.11 in 10.0 mi Calm Calm - N/A   Clear
12:55 AM 60.6 °F - 60.6 °F 100% 30.11 in 10.0 mi Calm Calm - N/A   Clear
1:15 AM 59.9 °F - 59.9 °F 100% 30.11 in 10.0 mi Calm Calm - N/A   Clear
1:35 AM 59.2 °F - 59.2 °F 100% 30.10 in 7.0 mi Calm Calm - N/A   Clear
1:55 AM 58.8 °F - 58.8 °F 100% 30.10 in 7.0 mi Calm Calm - N/A   Clear
2:15 AM 58.5 °F - 58.5 °F 100% 30.09 in 1.2 mi Calm Calm - N/A   Scattered Clouds
2:35 AM 58.1 °F - 58.1 °F 100% 30.09 in 1.2 mi Calm Calm - N/A   Mist
2:55 AM 57.9 °F - 57.9 °F 100% 30.09 in 0.8 mi Calm Calm - N/A   Overcast
3:15 AM 58.1 °F - 58.1 °F 100% 30.09 in 1.2 mi Calm Calm - N/A   Overcast
3:35 AM 57.9 °F - 57.9 °F 100% 30.08 in 1.2 mi Calm Calm - N/A   Overcast
3:55 AM 57.6 °F - 57.6 °F 100% 30.08 in 0.5 mi Calm Calm - N/A Fog Fog
4:15 AM 58.1 °F - 58.1 °F 100% 30.08 in 0.2 mi Calm Calm - N/A Fog Fog
4:35 AM 59.4 °F - 59.4 °F 100% 30.08 in 0.2 mi Calm Calm - N/A Fog Fog
4:55 AM 59.4 °F - 59.4 °F 100% 30.09 in 0.2 mi Calm Calm - N/A Fog Fog
5:15 AM 60.8 °F - 60.8 °F 100% 30.09 in 0.2 mi Calm Calm - N/A Fog Fog
5:35 AM 61.0 °F - 61.0 °F 100% 30.09 in 0.2 mi Calm Calm - N/A Fog Fog
5:55 AM 61.2 °F - 61.2 °F 100% 30.09 in 0.2 mi Calm Calm - N/A Fog Fog
6:15 AM 61.2 °F - 61.2 °F 100% 30.10 in 0.5 mi Calm Calm - N/A Fog Fog
6:35 AM 61.0 °F - 61.0 °F 100% 30.10 in 0.2 mi Calm Calm - N/A Fog Fog
6:55 AM 61.2 °F - 61.2 °F 100% 30.11 in 0.2 mi Calm Calm - N/A Fog Fog
7:15 AM 61.2 °F - 61.2 °F 100% 30.11 in 0.2 mi Calm Calm - N/A Fog Fog
7:35 AM 61.3 °F - 61.3 °F 100% 30.12 in 0.2 mi Calm Calm - N/A Fog Fog
7:55 AM 61.7 °F - 61.7 °F 100% 30.13 in 0.2 mi Calm Calm - N/A Fog Fog
8:15 AM 62.8 °F - 62.8 °F 100% 30.13 in 1.2 mi Calm Calm - N/A   Overcast
8:35 AM 63.7 °F - 63.7 °F 100% 30.13 in 1.5 mi Calm Calm - N/A   Overcast
8:55 AM 65.3 °F - 65.3 °F 100% 30.13 in 2.0 mi Calm Calm - N/A   Overcast
9:15 AM 65.7 °F - 65.7 °F 100% 30.14 in 3.0 mi East 3.5 mph - N/A   Overcast
9:35 AM 66.2 °F - 66.2 °F 100% 30.14 in 5.0 mi Calm Calm - N/A   Overcast
9:55 AM 67.1 °F - 67.1 °F 100% 30.14 in 7.0 mi SSE 3.5 mph - N/A   Overcast
10:15 AM 68.2 °F - 67.6 °F 98% 30.14 in 7.0 mi SSE 6.9 mph - N/A   Overcast
10:35 AM 68.9 °F - 67.1 °F 94% 30.15 in - South 9.2 mph - N/A   Overcast
10:55 AM 72.7 °F - 65.5 °F 78% 30.15 in - SE 6.9 mph - N/A   Mostly Cloudy
11:15 AM 72.7 °F - 65.3 °F 78% 30.15 in 10.0 mi SSE 8.1 mph - N/A   Mostly Cloudy
11:35 AM 73.8 °F - 64.2 °F 72% 30.14 in - South 8.1 mph - N/A   Overcast
12:00 PM 74.8 °F - 65.3 °F 72% 30.14 in - South 6.9 mph - N/A   Mostly Cloudy
12:15 PM 76.3 °F - 65.1 °F 68% 30.13 in 10.0 mi South 6.9 mph - N/A   Mostly Cloudy
12:35 PM 77.2 °F - 65.5 °F 67% 30.12 in - South 9.2 mph - N/A   Mostly Cloudy
12:55 PM 78.3 °F - 64.9 °F 63% 30.11 in 10.0 mi South 10.4 mph - N/A   Mostly Cloudy
1:15 PM 78.1 °F - 64.0 °F 62% 30.11 in 10.0 mi SE 10.4 mph - N/A   Mostly Cloudy
1:55 PM 80.2 °F 81.8 °F 63.7 °F 57% 30.08 in - SE 9.2 mph 17.3 mph N/A   Scattered Clouds
2:15 PM 79.9 °F - 63.7 °F 58% 30.08 in - SE 9.2 mph - N/A   Mostly Cloudy
2:35 PM 80.1 °F 81.5 °F 63.0 °F 56% 30.07 in 10.0 mi SSE 6.9 mph - N/A   Mostly Cloudy
2:55 PM 80.4 °F 81.7 °F 63.0 °F 55% 30.06 in - SSE 6.9 mph - N/A   Scattered Clouds
3:15 PM 81.3 °F 82.6 °F 63.3 °F 54% 30.05 in 10.0 mi SSE 10.4 mph - N/A   Scattered Clouds
3:35 PM 79.3 °F - 64.8 °F 61% 30.05 in - SSE 10.4 mph - N/A   Scattered Clouds
3:55 PM 81.5 °F 83.1 °F 64.6 °F 56% 30.04 in - SSE 11.5 mph 16.1 mph N/A   Mostly Cloudy
4:15 PM 81.3 °F 83.0 °F 64.6 °F 57% 30.03 in 10.0 mi SSE 10.4 mph - N/A   Scattered Clouds
4:35 PM 81.3 °F 82.6 °F 63.1 °F 54% 30.03 in 10.0 mi SSE 10.4 mph 19.6 mph N/A   Scattered Clouds
4:55 PM 81.5 °F 82.9 °F 64.0 °F 55% 30.03 in 10.0 mi SSE 9.2 mph - N/A   Scattered Clouds
5:15 PM 80.4 °F 82.2 °F 64.9 °F 59% 30.03 in - SSE 9.2 mph - N/A   Clear
5:35 PM 79.3 °F - 65.5 °F 62% 30.02 in 10.0 mi SSE 9.2 mph - N/A   Clear
5:55 PM 79.5 °F - 65.3 °F 62% 30.02 in 10.0 mi SE 10.4 mph - N/A   Clear
6:15 PM 78.1 °F - 65.7 °F 65% 30.02 in - SE 8.1 mph - N/A   Clear
6:35 PM 77.4 °F - 66.2 °F 68% 30.01 in - SSE 9.2 mph - N/A   Scattered Clouds
6:55 PM 75.9 °F - 66.6 °F 73% 30.01 in 10.0 mi SSE 9.2 mph - N/A   Scattered Clouds
7:15 PM 75.0 °F - 66.7 °F 75% 30.02 in - SE 8.1 mph - N/A   Clear
7:35 PM 74.3 °F - 66.6 °F 77% 30.02 in 10.0 mi SE 5.8 mph - N/A   Clear
7:55 PM 73.8 °F - 66.4 °F 78% 30.02 in 10.0 mi SE 8.1 mph - N/A   Scattered Clouds
8:15 PM 73.2 °F - 66.2 °F 79% 30.02 in 10.0 mi SSE 9.2 mph - N/A   Clear
8:35 PM 72.7 °F - 66.4 °F 81% 30.04 in 10.0 mi ESE 3.5 mph - N/A   Mostly Cloudy
8:55 PM 71.6 °F - 65.5 °F 81% 30.05 in 10.0 mi SE 5.8 mph - N/A   Scattered Clouds
9:15 PM 70.7 °F - 64.6 °F 81% 30.04 in 10.0 mi SE 6.9 mph - N/A   Scattered Clouds
9:35 PM 70.2 °F - 63.7 °F 80% 30.05 in 10.0 mi ESE 6.9 mph - N/A   Scattered Clouds
9:55 PM 69.4 °F - 63.0 °F 80% 30.04 in 10.0 mi ESE 5.8 mph - N/A   Clear
10:15 PM 69.3 °F - 62.6 °F 79% 30.03 in 10.0 mi ESE 4.6 mph - N/A   Clear
10:35 PM 68.9 °F - 62.1 °F 79% 30.03 in 10.0 mi ESE 3.5 mph - N/A   Clear
10:55 PM 68.4 °F - 61.7 °F 79% 30.04 in 10.0 mi ESE 5.8 mph - N/A   Clear
11:15 PM 68.4 °F - 61.5 °F 79% 30.04 in 10.0 mi SE 5.8 mph - N/A   Scattered Clouds
11:35 PM 68.7 °F - 62.1 °F 79% 30.03 in 10.0 mi ESE 6.9 mph - N/A   Mostly Cloudy
11:55 PM 68.4 °F - 62.6 °F 82% 30.03 in 10.0 mi ESE 5.8 mph - N/A   Mostly Cloudy